Regional Weather Roundup
Issued by NWS Charleston, SC

Current Version | Previous Version | Graphics & Text | Print | Product List | Glossary On
Versions: 1 2 3 4 5 6 7 8 9 10 11 12 13 14 15 16 17 18 19 20 21 22 23 24 25 26 27 28 29 30 31 32 33 34 35 36 37 38 39 40 41 42 43 44 45 46 47 48 49 50
000 ASUS42 KCHS 261511 RWRCHS REGIONAL WEATHER ROUNDUP NATIONAL WEATHER SERVICE CHARLESTON SC 1000 AM EST THU FEB 26 2015 NOTE: "FAIR" INDICATES FEW OR NO CLOUDS BELOW 12,000 FEET WITH NO SIGNIFICANT WEATHER AND/OR OBSTRUCTIONS TO VISIBILITY. NOT ALL STATIONS ARE QUALITY CONTROLLED BY THE NATIONAL WEATHER SERVICE. USE DATA WITH CAUTION...ESPECIALLY DEWPOINT OBSERVATIONS. SCZ027-030-031-034>040-042>050-261600- ...SOUTHEAST SOUTH CAROLINA... CITY SKY/WX TMP DP RH WIND PRES REMARKS N CHARLESTON CLOUDY 39 36 89 N14 29.83R WCI 31 WATERFRONT PRK N/A 39 N/A N/A NW10G17 N/A WCI 32 MOUNT PLEASANT LGT RAIN 39 37 93 NW9 29.82R WCI 33 PINOPOLIS N/A 39 36 87 N15 29.72R WCI 31 MONCKS CORNER CLOUDY 39 36 87 N5 N/A WCI 36 SUMMERVILLE CLOUDY 37 37 100 NW8 29.85R WCI 31 BEAUFORT MCAS CLOUDY 40 37 89 NW14 29.85R WCI 32 BEAUFORT ARPT CLOUDY 39 37 93 NW15 29.85R WCI 31 HILTON HEAD IS CLOUDY 39 37 93 NW12G21 29.85R WCI 32 WALTERBORO CLOUDY 41 37 87 N8 29.85R ALLENDALE CLOUDY 41 37 87 VRB6 29.87R ...SOUTHERN MIDLANDS AND PEE DEE... CITY SKY/WX TMP DP RH WIND PRES REMARKS GEORGETOWN NOT AVBL KINGSTREE NOT AVBL ORANGEBURG CLOUDY 39 33 79 N10 29.85R WCI 32 BARNWELL CLOUDY 39 37 93 NW7 29.88R WCI 34 AIKEN CLOUDY 37 37 100 N5 29.88R WCI 34 MANNING CLOUDY 39 39 100 NW9 29.83R WCI 33 COLUMBIA CLOUDY 40 34 79 N7 29.85R WCI 35 SUMTER CLOUDY 37 34 89 N9 29.83R WCI 30 FLORENCE CLOUDY 37 33 85 N12 29.82R WCI 29 MYRTLE BEACH CLOUDY 37 34 87 N12G18 29.79R WCI 30 N MYRTLE BEACH CLOUDY 38 33 82 N9G18 29.77R WCI 31 $$ GAZ063-065-086>088-099>101-113>116-118-119-134>141-150-261600- ...SOUTHEAST GEORGIA... CITY SKY/WX TMP DP RH WIND PRES REMARKS SAVANNAH ARPT CLOUDY 40 36 86 NW10 29.87R WCI 33 HUNTER AAF CLOUDY 41 39 93 NW14 29.84R FORT STEWART CLOUDY 41 37 86 NW10 29.85R STATESBORO CLOUDY 40 40 100 N8 29.88R WCI 35 SYLVANIA CLOUDY 40 38 96 NW8 29.88R WCI 34 CLAXTON CLOUDY 41 39 93 NW7 29.88R ...CSRA...CENTRAL AND FAR SOUTHEAST GEORGIA... CITY SKY/WX TMP DP RH WIND PRES REMARKS THOMSON CLOUDY 41 39 94 CALM 29.92R AUGUSTA-BUSH CLOUDY 40 36 86 N6 29.89R WCI 36 AUGUSTA-DANIEL CLOUDY 41 36 82 N6 29.88R SWAINSBORO CLOUDY 41 37 87 N6 29.90R VIDALIA CLOUDY 41 37 87 NW9 29.89R EASTMAN CLOUDY 40 40 100 N3 29.94R HAZLEHURST CLOUDY 42 42 99 NW6 29.89R ALMA CLOUDY 42 38 85 NW7 29.89R WAYCROSS CLOUDY 47 44 88 NW12 29.89 JESUP CLOUDY 45 41 87 NW10 29.88R BAXLEY CLOUDY 43 39 87 NW7 29.89R BRUNSWICK CLOUDY 46 41 81 NW7G18 29.87R SAINT SIMONS CLOUDY 45 39 79 NW12G20 29.87R $$ SCZ027-028-034-036>038-045-046-048>050-GAZ119-141-261600- ...LAKE AND SUPPLEMENTAL COASTAL OBSERVATIONS... STATION/POSITION TIME TEMP WIND PRES WAVE SWELL AIR SEA DIR/SP/G HT/PER HT/PER/DIR (UTC) (F) (DEG/KT/KT) (MB) (FT/S) (FT/S/D) UPR LAKE MARION NOT AVBL WINYAH BAY NOT AVBL LAKE MURRAY 1400 37 350/ 3/ 7 1009.5R ACE BASIN NERRS NOT AVBL FORT PULASKI 1400 40 49 300/ 14/ 17 1010.4R SAPELO ISLAND 1400 43 310/ 15 1010.0R $$ ANZ835-935-AMZ111-154-330-350-352-354-370-450-454-472-261600- ...C-MAN AND BUOY OBSERVATIONS... STATION/POSITION TIME TEMP WIND PRES WAVE SWELL AIR SEA DIR/SP/G HT/PER HT/PER/DIR (UTC) (F) (DEG/KT/KT) (MB) (FT/S) (FT/S/D) BUOY 41004 1450 44 66 320/ 19/ 27 1007.9R 9/ 9 5/ 9 BUOY 41008 1450 44 53 320/ 17/ 21 1010.6R 5/ 8 3/150/ 8 FOLLY BEACH CMAN 1500 39 330/ 10/ 14 1010.3R CAPERS NEARSHORE NOT AVBL FRIPP NEARSHORE 1400 41 320/ 16/ 19 1009.4R STATION/POSITION TIME TEMP WIND PRES WAVE SWELL AIR SEA DIR/SP/G HT/PER HT/PER/DIR (UTC) (F) (DEG/KT/KT) (MB) (FT/S) (FT/S/D) 5E ST. MARYS GA 1421 54 N/A 4/ 6 2/120/11 FRYING PAN BUOY 1450 41 57 330/ 17/ 21 1006.6R 10/ 9 7/180/ 9 BUOY 41025 NOT AVBL CAPE LOOKOUT NC 1400 37 340/ 22/ 27 1002.9R BUOY 41002 1450 74 71 220/ 33/ 41 1005.2R 16/ 8 BUOY 41010 1420 76 75 220/ 25/ 31 1008.9R ST AUGUSTINE FL 1500 63 300/ 8/ 10 1010.7R $$

USA.gov is the U.S. government's official web portal to all federal, state and local government web resources and services.